{"data":{"norad_id":67589,"intl_designator":"2026-018A","name":"STARLINK-36641","alt_names":[],"object_type":"PAYLOAD","status":"ACTIVE","operator":null,"country":"US","launch_date":"2026-01-29","launch_site_code":"AFWTR","launch_vehicle":null,"mission":null,"orbit_class":"UNKNOWN","rcs_meters":null,"size_class":null,"mass_kg":null,"dimensions":null,"purposes":["comms"],"wikipedia_slug":null,"has_3d_model":false,"image_url":null,"decayed_at":null,"tle_current":{"epoch":"2026-09-19T21:27:17.586720Z","epoch_age_seconds":122142,"freshness":"FRESH","line1":"1 67589U 26018A   26262.89395355  .00018510  00000+0  57379-3 0  9995","line2":"2 67589  97.2861 326.2984 0001157 273.6531  86.4580 15.33471658 37098","mean_motion":15.33471658,"eccentricity":0.0001157,"inclination_deg":97.2861,"raan_deg":326.2984,"arg_perigee_deg":273.6531,"mean_anomaly_deg":86.458,"bstar":0.00057379,"rev_number":3709,"period_min":93.904572183492,"perigee_km":464.67205555513,"apogee_km":466.25566479418,"semimajor_km":6843.6008601747,"source":"CELESTRAK","updated_at":"2026-09-20T09:00:43.600643Z"}}}